Regional Weather Roundup
Issued by NWS Pendleton, OR

Home | Current Version | Previous Version | Text Only | Print | Product List | Glossary On
Versions: 1 2 3 4 5 6 7 8 9 10 11 12 13 14 15 16 17 18 19 20 21 22 23 24 25 26 27 28 29 30 31 32 33 34 35 36 37 38 39 40 41 42 43 44 45 46 47 48 49 50
189
ASUS46 KPDT 302325
RWRPDT
PENDLETON REGIONAL WEATHER ROUNDUP
NATIONAL WEATHER SERVICE PENDLETON OREGON
400 PM PDT SAT APR 30 2016

NOTE: FAIR INDICATES FEW OR NO CLOUDS BELOW 12,000 FEET WITH NO
SIGNIFICANT WEATHER AND/OR OBSTRUCTIONS TO VISIBILITY.

# INDICATES UNOFFICIAL STATION AND DATA

WAZ520-010010-
EAST SLOPES OF WASHINGTON CASCADES

CITY            SKY/WX      TMP DP  RH  WIND    PRES   REMARKS
#CLE ELUM HS    N/A         65  39  38  W8      30.16S
#CLE ELUM 2NW   N/A         62  36  38  SW8     N/A
#CLE ELUM LAKE  N/A         64  41  43  W2      30.21F
#GLENWOOD       N/A         68  45  44  W2      30.19F
#MANASTASH CYN  N/A         66  29  25  NW2     30.17F
#NELSON 3SW     N/A         61  39  44  CALM    30.41F
#NILE           N/A         68  35  29  W3      29.46S
#RONALD 2NW     N/A         65  N/A N/A W1      30.10S
#TEANAWAY 4NE   N/A         68  43  40  SW8     N/A
#TROUT LAKE 1NE N/A         62  47  58  CALM    30.19F
$$

WAZ521-010010-
SIMCOE HIGHLANDS

CITY            SKY/WX      TMP DP  RH  WIND    PRES   REMARKS
#BICKLETON HS   N/A         61  27  27  N7      N/A
#CENTERVILLE 1SWN/A         66  43  43  SW9     30.14F
#GOLDENDALE 1NE N/A         69  22  17  N10     N/A
#GOODNOE HILLS  N/A         72  36  27  NW3     30.08F
#LYLE 6NE       N/A         66  43  43  SW8     30.17F
$$

WAZ026-010010-
KITTITAS VALLEY

CITY            SKY/WX      TMP DP  RH  WIND    PRES   REMARKS
ELLENSBURG AP   SUNNY       73  31  21  SE5     30.20S
YTC-OPS AREA    SUNNY       62  25  24  N16     30.24S
#ELLENSBURG CWU N/A         70  34  26  SE5     30.12S
#ELLENSBURG 3NE N/A         68  37  32  CALM    30.19S
#ELLENSBURG     N/A         75  34  22  S1      N/A
#ELLENSBURG 1E  N/A         74  N/A N/A CALM    N/A
#KITTITAS 3S    N/A         69  37  31  CALM    30.16F
#THORP 6N       N/A         64  39  40  NW13    30.23S
$$

WAZ027-010010-
YAKIMA VALLEY

CITY            SKY/WX      TMP DP  RH  WIND    PRES   REMARKS
SUNNYSIDE AP    SUNNY       71  38  30  N9      30.18F
YAKIMA AIRPORT  PTCLDY      77  29  17  N9      30.19S
YAKIMA-VAGABOND SUNNY       71  29  21  N5      30.17S
#DONALD 2NE     N/A         80   0   4  NW3     29.03S
#GRANDVIEW      N/A         72  30  21  CALM    30.18F
#MABTON         N/A         72  36  27  N9G33   30.17F
#NACHES 2SW     N/A         73  36  26  E5      30.20F
#TERRACE HTS    N/A         77  41  28  CALM    30.13F
#TOPPENISH      N/A         72  36  27  CALM    30.09F
#WEST VALLEY    N/A         71  30  22  CALM    30.15F
#W YAKIMA       N/A         71  32  24  N3      30.17F
#WHITE SWAN 5E  N/A         73  38  28  W6      30.18F
#WILEY CITY 3W  N/A         71  23  16  CALM    30.16F
$$

WAZ028-010010-
LOWER COLUMBIA BASIN...WASHINGTON

CITY            SKY/WX      TMP DP  RH  WIND    PRES   REMARKS
HANFORD         MOSUNNY     73  33  23  NE14    30.20F
PASCO           CLOUDY      73  44  35  NE16    30.20S
PROSSER AWOS    N/A         73  34  24  N10     30.21F
RICHLAND AWOS   SUNNY       73  47  40  NE17G29 30.19S
#BENTON CITY    N/A         70  39  32  NE9     30.09F
#CONNELL 5N     N/A         66  46  48  NE6     30.20F
#CONNELL 5NW    N/A         66  50  56  NE6     30.16F
#ELTOPIA 6NW    N/A         66  52  61  E6      29.17S
#KAHLOTUS       N/A         62  47  58  E3      30.20F
#KENNEWICK 3S   N/A         72  46  39  CALM    30.18F
#PATERSON       N/A         72  39  30  E7      30.15F
#SAGEMOOR 2W    N/A         67  50  54  N7      30.04S
#TOUCHET 2S     N/A         67  51  56  E2      30.16F
#WEST PASCO     N/A         72  48  43  NE7     30.26F
$$

WAZ029-010010-
FOOTHILLS OF THE BLUES...WASHINGTON

CITY            SKY/WX      TMP DP  RH  WIND    PRES   REMARKS
WALLA WALLA AP  MOCLDY      63  45  52  NE7     30.21F
#CLYDE 6NW      N/A         63  46  54  NE9     30.19F
#DAYTON SCHOOL  N/A         61  40  46  W5      30.22F
#LOWDEN 2SE     N/A         67  47  49  E2      30.16F
#PLEASANT VIEW 1N/A         62  47  58  N1      30.25F
#PRESCOTT       N/A         64  47  54  CALM    30.19F
#SUDBURY        N/A         57  N/A N/A CALM    N/A
#WHITMAN COLLEGEN/A         64  46  52  N3      30.25F
#WAITSBURG 5S   N/A         61  46  58  CALM    30.31F
#WAITSBURG 8N   N/A         68  22  17  N1      30.06F
#WALLA WALLA U  N/A         65  46  50  CALM    30.19F
#WHITMAN MISSIONN/A         68  48  49  CALM    30.20F
$$

WAZ030-010010-
BLUE MOUNTAINS...WASHINGTON

CITY            SKY/WX      TMP DP  RH  WIND    PRES   REMARKS
#DIXIE 5SE      N/A         45  40  82  S6      30.16S
$$

ORZ009-041-WAZ024-010010-
COLUMBIA RIVER GORGE

CITY            SKY/WX      TMP DP  RH  WIND    PRES   REMARKS
HOOD RIVER AP   SUNNY       70  43  38  NW8     30.20F
THE DALLES AP   SUNNY       74  40  29  N14     30.18F
#ARLINGTON AIRPON/A         72  36  27  NE9     30.18F
#CELILO DOT     N/A         77  45  32  W2      N/A
#MARYHILL 2W    N/A         71  39  31  S2      N/A
#MOSIER 1S      N/A         70  35  28  NW10    30.18F
#MURDOCK        N/A         71  44  38  NW10    30.14F
#RUFUS DOT      N/A         74  37  26  W10     N/A

$$

ORZ510-010010-
NORTH CENTRAL OREGON

CITY            SKY/WX      TMP DP  RH  WIND    PRES   REMARKS
#ANTELOPE       N/A         61  38  42  E9      30.10F
#COW CYN RST AREN/A         62  31  31  NE13    N/A
#DUFUR 9E       N/A         63  36  36  N6      30.25F
#GRASS VALLEY   N/A         65  37  35  N2      N/A
#GRASS VALLEY 1SN/A         66  38  36  NE9     30.14F
#KENT DOT       N/A         64  30  28  N8      N/A
#MAUPIN SCHOOL  N/A         71  39  31  N3      30.20F
#MORO SCHOOL    N/A         68  41  37  E2      30.20F
#SHANIKO 5WSW   N/A         59  27  29  NE16    N/A
#TYGH VALLEY 2NEN/A         70  42  36  NW5     30.17F
#WAPANITIA AIRPON/A         67  40  37  N5      30.20F
#WASCO DOT      N/A         73  41  31  NW6     N/A
#WASCO 5NE      N/A         69  41  36  E3      30.18F
$$

ORZ511-010010-
CENTRAL OREGON

CITY            SKY/WX      TMP DP  RH  WIND    PRES   REMARKS
BEND AIRPORT    MOCLDY      59  32  36  N15     30.18F
MADRAS AIRPORT  MOCLDY      66  34  30  N13     30.21F
PRINEVILLE AP   SUNNY       64  32  30  N14     30.19F
REDMOND AIRPORT PTCLDY      65  33  30  N14     30.18F
#ASHWOOD SCHOOL N/A         64  35  34  N7      30.15F
#BEND 1SW       N/A         58  36  44  E3      N/A
#BEND-AWBREY    N/A         60  37  42  N2      30.21F
#BEND-KIM LN    N/A         62  38  41  N3      30.16F
#CULVER         N/A         62  36  38  NE5     30.16F
#LAKE BILLY CHINN/A         65  N/A N/A N12     30.22F
#POWELL BUTTE   N/A         64  34  33  NE7     30.05S
#PRINEVILLE 3N  N/A         62  39  43  N14     30.17F
#WARM SPRINGS   N/A         69  39  33  N5      30.15F

$$


ORZ509-010010-
EAST SLOPES OF OREGON CASCADES

CITY            SKY/WX      TMP DP  RH  WIND    PRES   REMARKS
SISTERS AWOS    N/A         61  34  36  N13     30.16F
#BLUE BOX PASS  N/A         54  N/A N/A SW1     N/A
#BLACK BUTTE RNCN/A         63  35  35  CALM    30.20F
#CAMP SHERMAN   N/A         65  33  30  N2      30.26F
#LA PINE 4NW    N/A         57  34  42  NE2     30.26F
#LAVA BUTTE DOT N/A         57  29  34  N2      N/A
#SISTERS AIRPOR N/A         60  41  49  VRB7    30.17S
#SISTERS ODOT   N/A         61  N/A N/A NW3     N/A
#SISTERS 3N     N/A         60  34  37  E6      30.17F
#SUNRIVER       N/A         58  35  42  E3      30.25F
#TUMALO 3W      N/A         58  36  44  N9      30.09F
#WANOGA BUTTE D N/A         47  29  49  NE8     N/A

$$

ORZ044-010010-
LOWER COLUMBIA BASIN...OREGON

CITY            SKY/WX      TMP DP  RH  WIND    PRES   REMARKS
HERMISTON       PTCLDY      71  38  30  N8      30.17F
#BOARDMAN SCHOOLN/A         73  38  28  NE5     30.16F
#ECHO 8SW       N/A         71  40  32  E1      30.19F
#I-84 EX 198 DOTN/A         66  43  43  E10     N/A
#UMATILLA SCHOOLN/A         74  50  43  NE3     30.16F
#UMATILLA       N/A         73  40  30  N5      30.11F
$$

ORZ507-010010-
NORTHERN FOOTHILLS OF THE BLUES

CITY            SKY/WX      TMP DP  RH  WIND    PRES   REMARKS
PENDLETON AIRPT CLOUDY      64  39  40  NE8     30.19F
#ADAMS 3WNW     N/A         63  46  54  E2      30.20F
#ATHENA         N/A         62  43  50  NE5     30.22F
#CAYUSE         N/A         63  45  52  W8      30.19F
#HELIX SCHOOL   N/A         61  44  53  N1      30.20F
#HELIX 3N       N/A         60  44  55  N3      30.16F
#HELIX 6SW      N/A         63  44  50  NE5     30.19S
#HOLDMAN 5SE    N/A         65  43  45  N5      30.18F
#HOLDMAN 6E     N/A         63  46  54  SW3     30.01S
#M-F FERNDALE   N/A         71  45  39  CALM    30.19F
#M-F GROVE ELEM N/A         64  42  45  CALM    30.18F
#M-FREEWATER 5SEN/A         65  46  50  CALM    30.19F
#PENDLETON DNTN N/A         67  40  37  N2      30.22S
#PDT AQUATIC CTRN/A         66  41  40  N6      30.19F
#PDT SUNRIDGE   N/A         65  43  45  NE1     30.20F
#PENDLETON 7NW  N/A         66  45  47  CALM    27.45S
#PILOT ROCK     N/A         62  39  43  N5      30.20F
#TUTUILLA       N/A         62  45  54  CALM    30.20F
#UMAPINE 2E     N/A         66  46  48  CALM    30.17F
#WESTON SCHOOL  N/A         61  40  46  CALM    30.10F

$$

ORZ508-010010-
SOUTHERN FOOTHILLS OF THE BLUES

CITY            SKY/WX      TMP DP  RH  WIND    PRES   REMARKS
#AJAX           N/A         65  32  29  NW6     27.94F
#CONDON SCHOOL  N/A         63  38  39  N8      30.15F
#CONDON 5W      N/A         58  33  39  N13     30.19F
#FOSSIL SCHOOL  N/A         63  36  36  NE10    30.14F
#HEPPNER EOC    N/A         64  36  35  N6      30.14F
#HEPPNER 4NE    N/A         59  37  44  N2      30.22F
#LEXINGTON 2SE  N/A         68  39  35  N7      30.15F
#MIKKALO        N/A         70  34  26  NE6     30.28F
#RUGGS 5NE      N/A         63  36  36  N14     30.40F
#RUGGS 2SW      N/A         61  36  39  N8      30.22F

$$

ORZ502-503-010010-
BLUE MOUNTAINS

CITY            SKY/WX      TMP DP  RH  WIND    PRES   REMARKS
MEACHAM         CLOUDY      52  38  59  VRB5    30.23S
#BATTLE MTN DOT N/A         51  41  68  N7      N/A
#GREENHORN 9SW  N/A         54  36  50  W2      26.37F
#HARDMAN 10S    N/A         61  34  36  N5      30.22S
#HEPPNER 15SE   N/A         52  36  54  W7      25.73F
#LADD CYN SMT   N/A         52  33  48  NW10    N/A
#LADD CREEK ODOTN/A         55  38  53  NE8     N/A
#N POWDER DOT   N/A         54  39  57  N22     N/A
#PIKES PEAK     N/A         52  40  63  N7      27.99S
#TOLLGATE       N/A         44  40  86  NW3     30.06F
#TROY SCHOOL    N/A         60  47  62  CALM    30.05F
#UKIAH          N/A         54  39  57  N6      30.14F
#WESTON 4E      N/A         56  44  64  NW1     30.21F
$$

ORZ505-010010-
JOHN DAY BASIN

CITY            SKY/WX      TMP DP  RH  WIND    PRES   REMARKS
JOHN DAY        CLOUDY      59  35  40  N10     30.19F
#DAYVILLE SCHOOLN/A         62  31  31  N7      30.13F
#MITCHELL       N/A         60  41  49  CALM    30.33F
#MITCHELL 8NW   N/A         59  33  37  NW3     30.40F
#MONUMENT HS    N/A         65  33  30  N9      30.14F
#MT. VERNON 5SE N/A         54  35  48  N3      30.14F
#SPRAY SCHOOL   N/A         69  N/A N/A N1      N/A
#WINLOCK        N/A         59  35  40  NW1     30.16F
$$

ORZ506-010010-
OCHOCO AND JOHN DAY HIGHLANDS

CITY            SKY/WX      TMP DP  RH  WIND    PRES   REMARKS
#BUCK CREEK DOT N/A         59  37  44  N16     N/A
#HORSE RIDGE DO N/A         58  29  33  N12     N/A
#KEYES SMT DOT  N/A         54  35  48  N7      N/A
#PAULINA SCHOOL N/A         60  36  41  N6      29.38F
#PINE MTN OBS   N/A         46  34  63  N2      N/A
#PRAIRIE CITY   N/A         59  33  37  W3      30.16S
#SENECA         N/A         52  N/A N/A N10     N/A
#SENECA 9NW     N/A         50  35  56  N1      30.17S
$$

ORZ049-010010-
GRANDE RONDE VALLEY

CITY            SKY/WX      TMP DP  RH  WIND    PRES   REMARKS
LA GRANDE       CLOUDY      57  34  42  N13     30.19S
#COVE           N/A         55  46  72  VRB7    30.21F
#COVE SCHOOL    N/A         55  42  61  NE2     30.19F
#COVE 6NW       N/A         39  35  85  CALM    29.63S
#ELGIN 3N       N/A         60  35  39  W5      30.15F
#ELGIN 1E       N/A         58  39  49  W3      N/A
#IMBLER SCHOOL  N/A         56  40  55  NW13    30.14F
#ISLAND CITY 4N N/A         68  52  57  CALM    30.27F
#LADD CYN DOT   N/A         56  39  53  NW10    N/A
#UNION 1S       N/A         57  41  55  N9      30.10F
$$

ORZ050-010010-
WALLOWA COUNTY

CITY            SKY/WX      TMP DP  RH  WIND    PRES   REMARKS
JOSEPH AIRPORT  CLOUDY      48  41  77  NW6     30.21S
#ENTERPRISE AP  N/A         49  29  46  CALM    30.11F
#ENTERPRISE HS  N/A         52  43  71  N5      30.19F
#IMNAHA SCHOOL  N/A         52  45  77  N3      30.21R
#IMNAHA 10S     N/A         49  42  77  E3      30.18R
#JOSEPH 3N      N/A         49  40  71  N6      30.20S
#JOSEPH 3W      N/A         47  41  79  N5      30.02S
#LOSTINE        N/A         53  44  71  NW1     30.01F
#MT HOWARD 8000 N/A         32  31  96  NW8     30.18S
#PROMISE 1S     N/A         50  43  77  SW5     30.31F
#WALLOWA SCHOOL N/A         55  43  64  CALM    30.15F



$$



USA.gov is the U.S. government's official web portal to all federal, state and local government web resources and services.